This is the latest recevied weather packets stored in our database for station/object HP3ICC-22. If no packets are shown the sender has not sent any weather packets the latest 10 day(s).
| Time | Temp. | Humidity | Pressure | Rain* | Wind** | Luminosity | Snow |
|---|---|---|---|---|---|---|---|
| 1777241895 | 11.67° C | 77% | 1012 hPa | 0.51 mm | - | - | - |
| 1777241835 | 11.67° C | 77% | 1012 hPa | 0.51 mm | - | - | - |
| 1777240695 | 12.22° C | 77% | 1012 hPa | 0 mm | - | - | - |
| 1777240635 | 12.22° C | 77% | 1012 hPa | 0 mm | - | - | - |
| 1777239495 | 12.78° C | 77% | 1012 hPa | 0 mm | - | - | - |
| 1777239434 | 12.78° C | 77% | 1012 hPa | 0 mm | - | - | - |
| 1777238294 | 13.33° C | 77% | 1012 hPa | 0 mm | - | - | - |
| 1777238234 | 13.33° C | 77% | 1012 hPa | 0 mm | - | - | - |
| 1777237093 | 13.33° C | 73% | 1012 hPa | 0 mm | - | - | - |
| 1777237033 | 13.33° C | 73% | 1012 hPa | 0 mm | - | - | - |
| 1777235893 | 14.44° C | 72% | 1012 hPa | 0.25 mm | - | - | - |
| 1777235833 | 14.44° C | 72% | 1012 hPa | 0.25 mm | - | - | - |
| 1777234692 | 13.33° C | 75% | 1012 hPa | 0.25 mm | - | - | - |
| 1777234632 | 13.33° C | 75% | 1012 hPa | 0.25 mm | - | - | - |
| 1777233491 | 13.33° C | 75% | 1012 hPa | 0 mm | - | - | - |
| 1777233431 | 13.33° C | 75% | 1012 hPa | 0 mm | - | - | - |
| 1777232291 | 14.44° C | 75% | 1012 hPa | 0.25 mm | - | - | - |
| 1777232231 | 14.44° C | 75% | 1012 hPa | 0.25 mm | - | - | - |
| 1777231090 | 15° C | 71% | 1013 hPa | 0.25 mm | - | - | - |
| 1777231030 | 15° C | 71% | 1013 hPa | 0.25 mm | - | - | - |
| 1777229890 | 14.44° C | 76% | 1013 hPa | 0.25 mm | - | - | - |
| 1777229830 | 14.44° C | 76% | 1013 hPa | 0.25 mm | - | - | - |
| 1777228689 | 15° C | 71% | 1013 hPa | 0.25 mm | - | - | - |
| 1777228629 | 15° C | 71% | 1013 hPa | 0.25 mm | - | - | - |
| 1777227489 | 14.44° C | 75% | 1013 hPa | 0.25 mm | - | - | - |
* Rain latest hour (hover to see other rain measurements)
** Current wind speed in m/s (hover to see current wind gust speed)